Location: Deuil
(48.9767°N, 2.3272°E)
Time: 11:39:58
(UTC+00:00)

Cosmos 2228 - Visible Passes

Search period start: 29 May 2022 00:00
Search period end: 08 June 2022 00:00
Orbit: 588 x 615 km, 82.5° (Epoch: 29 May)

Date Brightness Start Highest point End Pass type
(mag) Time Alt. Az. Time Alt. Az. Time Alt. Az.
29 May 5.3 00:56:33 10° NNE 00:59:57 22° ENE 01:03:18 10° ESE visible
29 May 3.5 02:33:32 10° NNW 02:37:41 43° W 02:41:41 10° SSW visible
30 May 4.6 01:08:08 10° N 01:12:05 32° ENE 01:15:58 10° SE visible
30 May 4.1 02:45:47 10° NNW 02:49:30 28° W 02:53:10 10° SSW visible
31 May 3.8 01:19:54 10° N 01:24:09 49° ENE 01:27:54 13° SSE visible
31 May 4.7 02:58:16 10° NW 03:01:16 18° W 03:04:15 10° SW visible
01 Jun 3.1 01:31:46 10° N 01:36:09 77° E 01:39:26 17° SSE visible
01 Jun 5.1 03:11:19 10° WNW 03:12:59 12° W 03:14:38 10° WSW visible
02 Jun 5.6 00:07:32 10° NNE 00:10:03 15° ENE 00:12:33 10° E visible
02 Jun 3.0 01:43:45 10° NNW 01:48:05 68° W 01:51:00 20° S visible
03 Jun 5.1 00:18:51 10° NNE 00:22:15 22° ENE 00:25:36 10° ESE visible
03 Jun 3.5 01:55:51 10° NNW 01:59:58 42° W 02:02:35 20° SSW visible
04 Jun 4.5 00:30:26 10° N 00:34:22 32° ENE 00:37:25 15° SE visible
04 Jun 4.2 02:08:06 10° NNW 02:11:47 27° W 02:14:12 17° SW visible
05 Jun 3.7 00:42:11 10° N 00:46:25 49° ENE 00:49:03 21° SE visible
05 Jun 4.7 02:20:35 10° NW 02:23:32 18° W 02:25:50 12° WSW visible
05 Jun 5.9 23:19:56 10° ENE 23:20:04 10° ENE 23:20:13 10° ENE visible
06 Jun 3.0 00:54:03 10° N 00:58:24 78° ENE 01:00:42 27° SSE visible
06 Jun 5.2 02:33:41 10° WNW 02:35:14 12° W 02:36:46 10° WSW visible
06 Jun 5.5 23:29:48 10° NNE 23:32:19 15° ENE 23:34:49 10° E visible
07 Jun 3.0 01:06:01 10° NNW 01:10:20 66° W 01:12:22 29° S visible
07 Jun 5.0 23:41:06 10° NNE 23:44:29 22° ENE 23:47:16 13° ESE visible
